Date_and_time,latitude,longitude,wind_speed,RelWindDirFrom,WindDirFrom,air_pressure,air_temperature,relative_humidity,Temp,platform_speed_wrt_ground,air_pressure_at_mean_sea_level,platform_orientation
2019-11-01 23:50,50.6304433333333,-96.9807683333333,7.9,12.6,297,988.81,-1.2,80,2.33,0.0,1016.83,90.0
2019-11-02 00:00,50.6304416666667,-96.9807733333333,9.3,14.1,301,988.86,-1.2,79,2.33,0.0,1016.88,194.5
2019-11-02 00:10,50.6304416666667,-96.980775,9.7,13.4,302,988.96,-1.3,78,2.33,0.0,1016.98,194.5
2019-11-02 00:20,50.6304083333333,-96.9807666666667,10.0,16.1,304,989.09,-1.5,77,2.32,0.0,1017.12,194.5
2019-11-02 00:30,50.630425,-96.9807783333333,8.9,16.2,299,989.27,-1.6,78,2.33,0.0,1017.31,194.5
2019-11-02 00:40,50.6304233333333,-96.98078,9.5,14.4,305,989.26,-1.7,80,2.34,0.0,1017.31,194.5
2019-11-02 00:50,50.630425,-96.9807833333333,9.5,14.6,301,989.32,-1.8,82,2.34,0.0,1017.38,194.5
2019-11-02 01:00,50.6304283333333,-96.9807816666667,9.4,14.7,303,989.36,-1.9,81,2.33,0.0,1017.42,299.2
2019-11-02 01:10,50.6304283333333,-96.9807816666667,9.3,14.9,301,989.43,-2.0,82,2.33,0.0,1017.50,299.2
2019-11-02 01:20,50.6304283333333,-96.98078,9.7,14.6,298,989.45,-2.2,85,2.32,0.0,1017.53,299.2
2019-11-02 01:30,50.6304316666667,-96.9807783333333,9.4,13.7,297,989.53,-2.2,88,2.32,0.0,1017.61,299.2
2019-11-02 01:40,50.6304366666667,-96.9807733333333,8.9,13.2,298,989.50,-2.2,87,2.32,0.0,1017.59,299.2
2019-11-02 01:50,50.6304333333333,-96.9807716666667,9.4,13.6,302,989.48,-2.2,86,2.32,0.0,1017.56,299.2
2019-11-02 02:00,50.6304283333333,-96.98077,9.3,14.3,303,989.48,-2.3,87,2.32,0.0,1017.58,90.0
2019-11-02 02:10,50.6304283333333,-96.98077,8.4,12.3,303,989.50,-2.3,88,2.31,0.0,1017.60,90.0
2019-11-02 02:20,50.630425,-96.9807583333333,8.6,12.6,301,989.50,-2.3,86,2.31,0.0,1017.61,90.0
2019-11-02 02:30,50.6304366666667,-96.9807766666667,7.5,11.6,304,989.57,-2.2,85,2.31,0.0,1017.68,90.0
2019-11-02 02:40,50.6304383333333,-96.9807733333333,7.0,11.5,306,989.63,-2.2,85,2.31,0.0,1017.76,90.0
2019-11-02 02:50,50.6304416666667,-96.9807833333333,6.7,11.0,305,989.72,-2.1,84,2.30,0.0,1017.84,90.0
2019-11-02 03:00,50.6304366666667,-96.9807783333333,7.6,10.9,304,989.75,-2.2,83,2.29,0.0,1017.89,240.8
2019-11-02 03:10,50.6304366666667,-96.9807783333333,6.9,11.2,302,989.81,-2.3,85,2.29,0.0,1017.96,240.8
2019-11-02 03:20,50.6304383333333,-96.98078,7.2,10.6,300,989.79,-2.3,86,2.29,0.0,1017.95,240.8
2019-11-02 03:30,50.6304383333333,-96.98078,7.3,11.5,302,989.73,-2.4,89,2.28,0.0,1017.89,240.8
2019-11-02 03:40,50.6304383333333,-96.98078,7.8,12.0,296,989.72,-2.4,88,2.27,0.0,1017.87,240.8
2019-11-02 03:50,50.63044,-96.98078,8.8,15.0,296,989.69,-2.4,88,2.26,0.0,1017.85,240.8
2019-11-02 04:00,50.63044,-96.9807816666667,9.5,14.0,297,989.65,-2.3,85,2.24,0.0,1017.80,360.0
2019-11-02 04:10,50.63044,-96.9807816666667,9.7,14.5,299,989.69,-2.3,83,2.21,0.0,1017.84,360.0
2019-11-02 04:20,50.63044,-96.9807816666667,10.1,15.5,297,989.71,-2.3,83,2.20,0.0,1017.86,360.0
2019-11-02 04:30,50.63044,-96.9807816666667,8.8,13.9,298,989.72,-2.2,82,2.19,0.0,1017.87,360.0
2019-11-02 04:40,50.6304416666667,-96.98078,9.2,14.5,298,989.72,-2.2,82,2.19,0.0,1017.86,360.0
2019-11-02 04:50,50.63044,-96.98078,8.1,12.6,297,989.80,-2.2,83,2.20,0.0,1017.94,360.0
2019-11-02 05:00,50.63044,-96.98078,9.0,15.0,298,989.80,-2.2,82,2.21,0.0,1017.95,328.9
2019-11-02 05:10,50.63044,-96.98078,8.7,13.1,297,989.90,-2.2,80,2.20,0.0,1018.06,328.9
2019-11-02 05:20,50.63044,-96.98078,8.8,13.5,295,989.95,-2.2,79,2.18,0.0,1018.12,328.9
2019-11-02 05:30,50.6304383333333,-96.98078,9.0,13.8,301,989.95,-2.1,78,2.18,0.0,1018.11,328.9
2019-11-02 05:40,50.6304383333333,-96.98078,9.0,13.6,301,989.98,-2.1,78,2.17,0.0,1018.14,328.9
2019-11-02 05:50,50.6304366666667,-96.98078,9.7,15.7,299,989.93,-2.2,77,2.17,0.0,1018.09,328.9
2019-11-02 06:00,50.6304366666667,-96.98078,9.4,13.6,300,989.91,-2.2,78,2.17,0.0,1018.06,0.0
2019-11-02 06:10,50.6304366666667,-96.98078,8.9,13.8,297,989.95,-2.3,78,2.16,0.0,1018.11,0.0
2019-11-02 06:20,50.6304283333333,-96.98078,7.4,11.2,294,990.11,-2.3,78,2.17,0.0,1018.27,0.0
2019-11-02 06:30,50.6304283333333,-96.9807766666667,7.9,11.2,298,990.15,-2.3,78,2.17,0.0,1018.31,0.0
2019-11-02 06:40,50.63043,-96.9807733333333,7.8,11.6,299,990.19,-2.4,78,2.17,0.0,1018.36,0.0
2019-11-02 06:50,50.6304316666667,-96.9807733333333,6.7,9.6,299,990.21,-2.4,78,2.16,0.0,1018.38,0.0
2019-11-02 07:00,50.6304333333333,-96.9807716666667,6.9,9.3,298,990.30,-2.4,78,2.15,0.0,1018.48,143.4
2019-11-02 07:10,50.6304333333333,-96.9807683333333,7.1,9.4,296,990.32,-2.5,77,2.14,0.0,1018.50,143.4
2019-11-02 07:20,50.6304316666667,-96.9807666666667,7.1,10.1,301,990.40,-2.5,78,2.14,0.0,1018.57,143.4
2019-11-02 07:30,50.6304316666667,-96.980765,6.6,10.1,302,990.40,-2.5,78,2.14,0.0,1018.57,143.4
2019-11-02 07:40,50.6304316666667,-96.980765,7.2,12.0,302,990.39,-2.5,77,2.13,0.0,1018.57,143.4
2019-11-02 07:50,50.6304316666667,-96.980765,5.7,8.8,298,990.44,-2.5,77,2.13,0.0,1018.62,143.4
2019-11-02 08:00,50.6304333333333,-96.9807633333333,6.6,9.8,298,990.45,-2.5,77,2.14,0.0,1018.63,130.6
2019-11-02 08:10,50.630435,-96.9807633333333,6.2,9.8,300,990.49,-2.5,76,2.13,0.0,1018.67,130.6
2019-11-02 08:20,50.630435,-96.9807633333333,7.0,10.2,300,990.45,-2.4,75,2.12,0.0,1018.64,130.6
2019-11-02 08:30,50.6304366666667,-96.9807633333333,6.5,10.3,302,990.51,-2.4,75,2.11,0.0,1018.70,130.6
2019-11-02 08:40,50.6304366666667,-96.980765,6.9,10.2,302,990.53,-2.3,75,2.10,0.0,1018.71,130.6
2019-11-02 08:50,50.630445,-96.9807833333333,6.4,9.4,298,990.50,-2.4,75,2.09,0.0,1018.69,130.6
2019-11-02 09:00,50.63044,-96.9807833333333,6.0,9.0,294,990.48,-2.4,74,2.08,0.0,1018.67,360.0
2019-11-02 09:10,50.6304283333333,-96.9807683333333,5.9,8.5,297,990.45,-2.3,74,2.08,0.0,1018.63,360.0
2019-11-02 09:20,50.63045,-96.980805,7.2,11.2,300,990.39,-2.3,74,2.07,0.0,1018.58,360.0
2019-11-02 09:30,50.6304416666667,-96.980795,6.4,10.1,301,990.34,-2.2,73,2.07,0.0,1018.52,360.0
2019-11-02 09:40,50.63044,-96.9807833333333,6.0,11.3,297,990.29,-2.2,73,2.07,0.0,1018.46,360.0
2019-11-02 09:50,50.63044,-96.98078,6.6,9.3,301,990.18,-2.2,72,2.07,0.0,1018.36,360.0
2019-11-02 10:00,50.63044,-96.980775,6.0,8.7,299,990.17,-2.2,72,2.07,0.0,1018.34,360.0
2019-11-02 10:10,50.63044,-96.980775,6.1,9.6,297,990.20,-2.2,72,2.07,0.0,1018.37,360.0
2019-11-02 10:20,50.6304366666667,-96.980765,6.9,10.3,293,990.23,-2.2,72,2.06,0.0,1018.40,360.0
2019-11-02 10:30,50.6304333333333,-96.9807683333333,6.6,9.3,294,990.31,-2.2,72,2.06,0.0,1018.48,360.0
2019-11-02 10:40,50.6304233333333,-96.9807683333333,7.0,10.7,295,990.38,-2.2,72,2.05,0.0,1018.56,360.0
2019-11-02 10:50,50.6304216666667,-96.9807716666667,7.1,10.5,292,990.37,-2.3,72,2.05,0.0,1018.54,360.0
2019-11-02 11:00,50.63041,-96.98077,6.1,9.3,288,990.37,-2.4,73,2.04,0.0,1018.55,360.0
2019-11-02 11:10,50.6304133333333,-96.9807666666667,4.9,7.2,286,990.37,-2.4,75,2.04,0.0,1018.55,360.0
2019-11-02 11:20,50.6304166666667,-96.9807733333333,5.0,8.6,282,990.37,-2.5,76,2.03,0.0,1018.55,360.0
2019-11-02 11:30,50.6304166666667,-96.9807783333333,5.4,8.0,276,990.39,-2.6,78,2.03,0.0,1018.58,360.0
2019-11-02 11:40,50.6304266666667,-96.98081,6.1,9.5,267,990.48,-2.6,80,2.02,0.0,1018.67,360.0
2019-11-02 11:50,50.63043,-96.9808133333333,5.4,8.5,272,990.51,-2.6,81,2.02,0.0,1018.70,360.0
2019-11-02 12:00,50.6304366666667,-96.9808,4.5,7.4,270,990.47,-2.7,81,2.01,0.0,1018.66,234.7
2019-11-02 12:10,50.63044,-96.9807933333333,5.1,7.5,268,990.45,-2.7,81,2.01,0.0,1018.64,234.7
2019-11-02 12:20,50.63044,-96.9807916666667,4.7,6.5,267,990.40,-2.7,82,2.01,0.0,1018.59,234.7
2019-11-02 12:30,50.6304383333333,-96.9807916666667,3.9,5.4,267,990.37,-2.7,82,2.01,0.0,1018.56,234.7
2019-11-02 12:40,50.630425,-96.98078,4.1,6.9,253,990.31,-2.7,82,2.01,0.0,1018.50,234.7
2019-11-02 12:50,50.6304516666667,-96.9808033333333,3.9,6.9,257,990.23,-2.7,83,2.01,0.0,1018.43,234.7
2019-11-02 13:00,50.6304183333333,-96.9807666666667,4.7,6.5,250,990.15,-2.8,84,2.02,0.0,1018.35,360.0
2019-11-02 13:10,50.6304366666667,-96.980785,4.5,7.5,254,990.14,-2.8,86,2.02,0.0,1018.34,360.0
2019-11-02 13:20,50.63043,-96.9807816666667,4.2,5.9,251,990.12,-2.8,87,2.02,0.0,1018.33,360.0
2019-11-02 13:30,50.6304333333333,-96.980775,3.4,6.4,251,990.11,-2.8,87,2.01,0.0,1018.33,360.0
2019-11-02 13:40,50.63043,-96.9807733333333,3.4,4.6,243,990.09,-3.0,88,2.00,0.0,1018.31,360.0
2019-11-02 13:50,50.6304266666667,-96.9807733333333,3.6,5.2,244,990.02,-3.0,88,2.01,0.0,1018.25,360.0
2019-11-02 14:00,50.630425,-96.980775,3.0,4.3,251,989.97,-3.0,88,2.01,0.0,1018.19,360.0
2019-11-02 14:10,50.63041,-96.98078,3.3,5.3,257,989.89,-2.8,86,2.00,0.0,1018.10,360.0
2019-11-02 14:20,50.6303883333333,-96.9808033333333,3.3,4.8,248,989.87,-2.6,85,1.98,0.0,1018.06,360.0
2019-11-02 14:30,50.6304133333333,-96.9807983333333,3.6,5.3,243,989.86,-2.7,86,1.97,0.0,1018.06,360.0
2019-11-02 14:40,50.6304216666667,-96.9807766666667,3.3,5.5,243,989.88,-2.6,87,1.95,0.0,1018.08,360.0
2019-11-02 14:50,50.6304266666667,-96.9807766666667,3.7,5.9,255,989.88,-2.3,87,1.95,0.0,1018.07,360.0
2019-11-02 15:00,50.630425,-96.9807783333333,4.4,6.2,241,989.87,-2.1,87,1.96,0.0,1018.05,131.7
2019-11-02 15:10,50.6304266666667,-96.9807816666667,5.2,8.0,251,989.83,-2.0,86,1.97,0.0,1018.00,131.7
2019-11-02 15:20,50.6304233333333,-96.98078,5.3,8.4,254,989.74,-1.9,87,1.97,0.0,1017.90,131.7
2019-11-02 15:30,50.630425,-96.98078,4.9,7.4,251,989.73,-1.8,87,1.96,0.0,1017.89,131.7
2019-11-02 15:40,50.6304266666667,-96.98078,4.9,7.1,248,989.70,-1.7,87,1.95,0.0,1017.86,131.7
2019-11-02 15:50,50.630425,-96.9807783333333,4.7,6.7,236,989.67,-1.5,87,1.95,0.0,1017.82,131.7
2019-11-02 16:00,50.6304316666667,-96.9807866666667,5.3,7.4,238,989.68,-1.4,87,1.97,0.0,1017.82,317.0
2019-11-02 16:10,50.63047,-96.9807633333333,5.5,8.0,236,989.68,-1.2,87,1.98,0.0,1017.80,317.0
2019-11-02 16:20,50.6304533333333,-96.9807633333333,6.5,9.5,234,989.67,-1.0,86,1.98,0.0,1017.78,317.0
2019-11-02 16:30,50.6304216666667,-96.9807616666667,6.1,8.8,240,989.60,-0.8,85,1.99,0.0,1017.69,317.0
2019-11-02 16:40,50.63042,-96.9807633333333,6.2,8.5,240,989.53,-0.7,84,1.99,0.0,1017.60,317.0
2019-11-02 16:50,50.63042,-96.98076,5.9,8.9,253,989.52,-0.6,83,1.99,0.0,1017.58,317.0
2019-11-02 17:00,50.63042,-96.9807633333333,6.5,9.6,256,989.50,-0.5,82,2.00,0.0,1017.54,167.4
2019-11-02 17:10,50.6304233333333,-96.980765,6.4,9.0,253,989.46,-0.4,81,2.02,0.0,1017.49,167.4
2019-11-02 17:20,50.630425,-96.9807716666667,5.6,8.0,254,989.43,-0.2,80,2.04,0.0,1017.44,167.4
2019-11-02 17:30,50.6304233333333,-96.9807766666667,6.6,10.9,252,989.45,-0.1,79,2.06,0.0,1017.45,167.4
2019-11-02 17:40,50.630415,-96.980775,5.3,9.1,266,989.43,0.1,77,2.07,0.0,1017.41,167.4
2019-11-02 17:50,50.63042,-96.98078,6.3,10.2,271,989.38,0.2,77,2.08,0.0,1017.34,167.4
2019-11-02 18:00,50.6304216666667,-96.9807733333333,6.5,10.2,272,989.32,0.2,77,2.08,0.0,1017.28,125.3
2019-11-02 18:10,50.6304216666667,-96.9807716666667,4.9,7.5,266,989.28,0.3,77,2.09,0.0,1017.22,125.3
2019-11-02 18:20,50.6304233333333,-96.98077,6.6,11.5,263,989.22,0.4,77,2.10,0.0,1017.14,125.3
2019-11-02 18:30,50.630425,-96.98077,6.4,9.4,265,989.12,0.6,76,2.10,0.0,1017.03,125.3
2019-11-02 18:40,50.6304266666667,-96.9807716666667,6.5,9.2,273,988.93,0.7,75,2.10,0.0,1016.82,125.3
2019-11-02 18:50,50.6304283333333,-96.9807716666667,4.8,7.9,263,988.89,0.7,74,2.11,0.0,1016.77,125.3
2019-11-02 19:00,50.63043,-96.9807733333333,5.3,11.3,266,988.82,0.9,74,2.12,0.0,1016.69,113.6
2019-11-02 19:10,50.63043,-96.9807716666667,6.7,10.5,273,988.69,1.0,73,2.12,0.0,1016.53,113.6
2019-11-02 19:20,50.63043,-96.9807716666667,6.3,11.2,271,988.62,1.1,72,2.13,0.0,1016.45,113.6
2019-11-02 19:30,50.63044,-96.9807783333333,7.5,11.6,271,988.51,1.2,71,2.13,0.0,1016.33,113.6
2019-11-02 19:40,50.6304383333333,-96.980775,7.6,12.1,276,988.45,1.2,70,2.14,0.0,1016.25,113.6
2019-11-02 19:50,50.6304366666667,-96.980775,6.9,10.2,295,988.44,1.3,71,2.14,0.0,1016.24,113.6
2019-11-02 20:00,50.630435,-96.980775,6.7,11.3,279,988.47,1.3,71,2.16,0.0,1016.26,336.5
2019-11-02 20:10,50.630435,-96.9807733333333,7.6,11.4,276,988.46,1.2,71,2.17,0.0,1016.26,336.5
2019-11-02 20:20,50.630435,-96.9807716666667,7.1,10.5,274,988.44,1.2,71,2.17,0.0,1016.23,336.5
2019-11-02 20:30,50.630435,-96.9807716666667,6.5,9.7,269,988.43,1.3,71,2.17,0.0,1016.21,336.5
2019-11-02 20:40,50.6304516666667,-96.9807716666667,6.8,11.8,292,988.43,1.3,70,2.17,0.0,1016.20,336.5
2019-11-02 20:50,50.6304516666667,-96.9807733333333,6.4,10.1,281,988.48,1.3,70,2.18,0.0,1016.25,336.5
2019-11-02 21:00,50.6304233333333,-96.9807816666667,6.0,8.5,282,988.43,1.3,71,2.18,0.0,1016.19,305.3
2019-11-02 21:10,50.6304416666667,-96.9807683333333,5.5,8.6,274,988.39,1.3,71,2.18,0.0,1016.14,305.3
2019-11-02 21:20,50.630445,-96.9807716666667,5.1,8.4,258,988.43,1.3,72,2.18,0.0,1016.18,305.3
2019-11-02 21:30,50.6303916666667,-96.9807483333333,5.1,8.1,266,988.38,1.3,72,2.19,0.0,1016.12,305.3
2019-11-02 21:40,50.630425,-96.9807633333333,4.7,7.7,250,988.32,1.3,71,2.19,0.0,1016.06,305.3
2019-11-02 21:50,50.6304283333333,-96.9807616666667,4.6,6.4,246,988.28,1.3,72,2.20,0.0,1016.02,305.3
2019-11-02 22:00,50.63043,-96.9807633333333,4.3,7.3,249,988.30,1.3,72,2.20,0.0,1016.04,90.0
2019-11-02 22:10,50.63043,-96.9807633333333,4.6,6.9,255,988.41,1.3,72,2.20,0.0,1016.16,90.0
2019-11-02 22:20,50.6304316666667,-96.980765,4.7,6.3,249,988.37,1.3,72,2.20,0.0,1016.12,90.0
2019-11-02 22:30,50.630435,-96.9807666666667,4.6,6.4,234,988.32,1.2,73,2.21,0.0,1016.06,90.0
2019-11-02 22:40,50.6304366666667,-96.9807666666667,4.3,6.0,241,988.29,1.2,73,2.21,0.0,1016.04,90.0
2019-11-02 22:50,50.6304366666667,-96.9807683333333,3.6,5.0,251,988.23,1.2,73,2.21,0.0,1015.98,90.0
2019-11-02 23:00,50.6304366666667,-96.9807683333333,3.6,5.0,244,988.26,1.1,74,2.22,0.0,1016.01,90.0
2019-11-02 23:10,50.63044,-96.980785,3.8,5.6,230,988.20,1.0,74,2.22,0.0,1015.96,90.0
2019-11-02 23:20,50.6304433333333,-96.9807733333333,4.4,5.6,222,988.19,1.0,75,2.22,0.0,1015.95,90.0
2019-11-02 23:30,50.6304433333333,-96.9807716666667,4.9,8.5,220,988.21,0.9,76,2.22,0.0,1015.97,90.0
